Regional Weather Roundup
Issued by NWS Kansas City/Pleasant Hill, MO

Home | Current Version | Previous Version | Text Only | Print | Product List | Glossary On
Versions: 1 2 3 4 5 6 7 8 9 10 11 12 13 14 15 16 17 18 19 20 21 22 23 24 25 26 27
000
ASUS43 KEAX 260410
RWREAX

WEATHER ROUNDUP FOR EASTERN KANSAS AND NORTHWEST MISSOURI
NATIONAL WEATHER SERVICE KANSAS CITY/PLEASANT HILL MO
1100 PM CDT TUE APR 25 2017

KSZ040-057-103>105-MOZ028-029-037-043-260500-
...KANSAS CITY METROPOLITAN AREA...

CITY           SKY/WX    TMP DP  RH WIND       PRES   REMARKS
K.C. INTL      LGT RAIN  52  50  93 NW8       29.52S
K.C. DOWNTOWN  LGT RAIN  56  52  86 N6        29.51R
LEES SUMMIT    LGT RAIN  57  56  96 N12       29.50F
OLATHE - IXD   TSTM      53  52  96 N13       29.51S
OLATHE - OJC   LGT RAIN  54  54 100 N12       29.49S
LAWRENCE       CLOUDY    52  48  86 NW17      29.54R

$$

MOZ001>008-011>017-020>025-030>033-038>040-044>046-053-054-260500-
...NORTHERN AND CENTRAL MISSOURI...

CITY           SKY/WX    TMP DP  RH WIND       PRES   REMARKS
ST. JOSEPH     CLOUDY    50  47  89 N14       29.55R
MOSBY          TSTM      55  50  82 NE8       29.51R
WHITEMAN AFB   CLOUDY    65  65 100 CALM      29.46S
CLINTON        CLOUDY    64  63  94 CALM      29.49R
SEDALIA        CLOUDY    68  60  75 S3        29.48S
WARSAW         NOT AVBL
CHILLICOTHE      N/A     62  57  83 CALM      29.49R
KIRKSVILLE     CLOUDY    63  58  83 SW3       29.47R

$$

MOZ041-047>049-056>058-063>065-088>090-097-260500-
...EASTERN AND SOUTHERN MISSOURI...

CITY           SKY/WX    TMP DP  RH WIND       PRES   REMARKS
ST. LOUIS INTL CLOUDY    73  50  44 SE9       29.54R
SPIRIT OF STL  CLOUDY    71  53  52 S7        29.51S
COLUMBIA       CLOUDY    70  57  63 S5        29.49R
JEFFERSON CITY CLOUDY    74  55  51 SE3       29.48R
ROLLA          CLOUDY    69  53  56 S14       29.51R
OSAGE BEACH    CLOUDY    71  56  58 S10       29.49S
SPRINGFIELD    CLOUDY    68  60  75 S8        29.49F
BRANSON        CLOUDY    70  61  73 CALM      29.53
JOPLIN         CLOUDY    72  62  71 SE8       29.44F
WEST PLAINS    CLOUDY    69  53  56 S8        29.57R

$$

IAZ060-094-KSZ022-034>040-054-083-096-NEZ052-066-093-260500-
...KANSAS...SOUTHEAST NEBRASKA AND IOWA...

CITY           SKY/WX    TMP DP  RH WIND       PRES   REMARKS
TOPEKA         CLOUDY    50  46  86 N13G21    29.57R
MANHATTAN      CLOUDY    47  42  83 N7        29.60R
EMPORIA        CLOUDY    50  46  86 N15G24    29.53F
CHANUTE        CLOUDY    58  54  86 NW16G26   29.48R
WICHITA        CLOUDY    50  45  83 N17       29.52F
OMAHA          CLOUDY    44  40  85 N13       29.61R
LINCOLN        CLOUDY    42  38  85 N17       29.65R WCI  34
FALLS CITY     LGT RAIN  46  42  86 N14G26    29.56F
LAMONI         LGT RAIN  52  49  89 NW12      29.50R
DES MOINES     CLOUDY    51  46  83 NW16G24   29.49R

$$





USA.gov is the U.S. government's official web portal to all federal, state and local government web resources and services.